Time,TemperatureF,DewpointF,PressureIn,WindDirection,WindDirectionDegrees,WindSpeedMPH,WindSpeedGustMPH,Humidity,HourlyPrecipIn,Conditions,Clouds,dailyrainin,SolarRadiationWatts/m^2,SoftwareType,DateUTC
2013-02-13 00:02:00,41.0,40.0,-100.00,SE,137,5.0,9.0,95,0.01,,,0.08,0.000000,,2013-02-13 05:02:00,
2013-02-13 00:32:00,41.0,40.0,-100.00,SE,138,5.0,10.0,95,0.03,,,0.11,0.000000,,2013-02-13 05:32:00,
2013-02-13 00:42:00,41.0,40.0,-100.00,SE,138,5.0,10.0,95,0.03,,,0.11,0.000000,,2013-02-13 05:42:00,
2013-02-13 00:52:00,41.0,40.0,-100.00,SE,138,5.0,10.0,95,0.03,,,0.11,0.000000,,2013-02-13 05:52:00,
2013-02-13 01:02:00,41.0,40.0,-100.00,SE,138,5.0,10.0,95,0.03,,,0.11,0.000000,,2013-02-13 06:02:00,
2013-02-13 01:32:00,42.0,40.0,-100.00,SSE,150,9.0,15.0,94,0.00,,,0.11,0.000000,,2013-02-13 06:32:00,
2013-02-13 01:42:00,42.0,40.0,-100.00,SSE,150,9.0,15.0,94,0.00,,,0.11,0.000000,,2013-02-13 06:42:00,
2013-02-13 01:52:00,42.0,40.0,-100.00,SSE,150,9.0,15.0,94,0.00,,,0.11,0.000000,,2013-02-13 06:52:00,
2013-02-13 02:02:00,42.0,40.0,-100.00,SSE,150,9.0,15.0,94,0.00,,,0.11,0.000000,,2013-02-13 07:02:00,
2013-02-13 02:32:00,42.0,41.0,-100.00,SE,144,9.0,16.0,95,0.01,,,0.12,0.000000,,2013-02-13 07:32:00,
2013-02-13 02:42:00,42.0,41.0,-100.00,SE,144,9.0,16.0,95,0.01,,,0.12,0.000000,,2013-02-13 07:42:00,
2013-02-13 02:52:00,42.0,41.0,-100.00,SE,144,9.0,16.0,95,0.01,,,0.12,0.000000,,2013-02-13 07:52:00,
2013-02-13 03:01:00,42.0,41.0,-100.00,SE,144,9.0,16.0,95,0.01,,,0.12,0.000000,,2013-02-13 08:01:00,
2013-02-13 03:32:00,41.0,40.0,-100.00,SE,135,6.0,14.0,95,0.00,,,0.12,0.000000,,2013-02-13 08:32:00,
2013-02-13 03:43:00,41.0,40.0,-100.00,SE,135,6.0,14.0,95,0.00,,,0.12,0.000000,,2013-02-13 08:43:00,
2013-02-13 03:52:00,41.0,40.0,-100.00,SE,135,6.0,14.0,95,0.00,,,0.12,0.000000,,2013-02-13 08:52:00,
2013-02-13 04:02:00,41.0,40.0,-100.00,SE,135,6.0,14.0,95,0.00,,,0.12,0.000000,,2013-02-13 09:02:00,
2013-02-13 04:32:00,41.0,39.0,-100.00,SE,145,5.0,13.0,93,0.00,,,0.12,0.000000,,2013-02-13 09:32:00,
2013-02-13 04:42:00,41.0,39.0,-100.00,SE,145,5.0,13.0,93,0.00,,,0.12,0.000000,,2013-02-13 09:42:00,
2013-02-13 04:52:00,41.0,39.0,-100.00,SE,145,5.0,13.0,93,0.00,,,0.12,0.000000,,2013-02-13 09:52:00,
2013-02-13 05:01:00,41.0,39.0,-100.00,SE,145,5.0,13.0,93,0.00,,,0.12,0.000000,,2013-02-13 10:01:00,
2013-02-13 05:32:00,41.0,40.0,-100.00,SE,137,6.0,12.0,95,0.00,,,0.12,0.000000,,2013-02-13 10:32:00,
2013-02-13 05:42:00,41.0,40.0,-100.00,SE,137,6.0,12.0,95,0.00,,,0.12,0.000000,,2013-02-13 10:42:00,
2013-02-13 05:52:00,41.0,40.0,-100.00,SE,137,6.0,12.0,95,0.00,,,0.12,0.000000,,2013-02-13 10:52:00,
2013-02-13 06:01:00,41.0,40.0,-100.00,SE,137,6.0,12.0,95,0.00,,,0.12,0.000000,,2013-02-13 11:01:00,
2013-02-13 06:32:00,41.0,40.0,-100.00,SE,143,4.0,12.0,98,0.00,,,0.12,0.000000,,2013-02-13 11:32:00,
2013-02-13 06:42:00,41.0,40.0,-100.00,SE,143,4.0,12.0,98,0.00,,,0.12,0.000000,,2013-02-13 11:42:00,
2013-02-13 06:52:00,41.0,40.0,-100.00,SE,143,4.0,12.0,98,0.00,,,0.12,0.000000,,2013-02-13 11:52:00,
2013-02-13 07:02:00,41.0,40.0,-100.00,SE,143,4.0,12.0,98,0.00,,,0.12,0.000000,,2013-02-13 12:02:00,
2013-02-13 07:32:00,41.0,41.0,-100.00,SW,220,2.0,5.0,99,0.01,,,0.13,0.000000,,2013-02-13 12:32:00,
2013-02-13 07:42:00,41.0,41.0,-100.00,SW,220,2.0,5.0,99,0.01,,,0.13,0.000000,,2013-02-13 12:42:00,
2013-02-13 07:52:00,41.0,41.0,-100.00,SW,220,2.0,5.0,99,0.01,,,0.13,0.000000,,2013-02-13 12:52:00,
2013-02-13 08:02:00,41.0,41.0,-100.00,SW,220,2.0,5.0,99,0.01,,,0.13,0.000000,,2013-02-13 13:02:00,
2013-02-13 08:32:00,41.0,41.0,-100.00,West,280,3.0,7.0,100,0.01,,,0.14,2.000000,,2013-02-13 13:32:00,
2013-02-13 08:42:00,41.0,41.0,-100.00,West,280,3.0,7.0,100,0.01,,,0.14,2.000000,,2013-02-13 13:42:00,
2013-02-13 08:52:00,41.0,41.0,-100.00,West,280,3.0,7.0,100,0.01,,,0.14,2.000000,,2013-02-13 13:52:00,
2013-02-13 09:01:00,41.0,41.0,-100.00,West,280,3.0,7.0,100,0.01,,,0.14,2.000000,,2013-02-13 14:01:00,
2013-02-13 09:32:00,44.0,44.0,-100.00,South,189,8.0,13.0,100,0.02,,,0.16,22.000000,,2013-02-13 14:32:00,
2013-02-13 09:42:00,44.0,44.0,-100.00,South,189,8.0,13.0,100,0.02,,,0.16,22.000000,,2013-02-13 14:42:00,
2013-02-13 09:52:00,44.0,44.0,-100.00,South,189,8.0,13.0,100,0.02,,,0.16,22.000000,,2013-02-13 14:52:00,
2013-02-13 10:02:00,44.0,44.0,-100.00,South,189,8.0,13.0,100,0.02,,,0.16,22.000000,,2013-02-13 15:02:00,
2013-02-13 10:32:00,45.0,44.0,-100.00,SSW,198,14.0,24.0,98,0.01,,,0.17,68.000000,,2013-02-13 15:32:00,
2013-02-13 10:42:00,45.0,44.0,-100.00,SSW,198,14.0,24.0,98,0.01,,,0.17,68.000000,,2013-02-13 15:42:00,
2013-02-13 10:52:00,45.0,44.0,-100.00,SSW,198,14.0,24.0,98,0.01,,,0.17,68.000000,,2013-02-13 15:52:00,
2013-02-13 11:02:00,45.0,44.0,-100.00,SSW,198,14.0,24.0,98,0.01,,,0.17,68.000000,,2013-02-13 16:02:00,
2013-02-13 11:32:00,44.0,43.0,-100.00,SW,219,14.0,25.0,97,0.01,,,0.18,50.000000,,2013-02-13 16:32:00,
2013-02-13 11:42:00,44.0,43.0,-100.00,SW,219,14.0,25.0,97,0.01,,,0.18,50.000000,,2013-02-13 16:42:00,
2013-02-13 11:52:00,44.0,43.0,-100.00,SW,219,14.0,25.0,97,0.01,,,0.18,50.000000,,2013-02-13 16:52:00,
2013-02-13 12:02:00,44.0,43.0,-100.00,SW,219,14.0,25.0,97,0.01,,,0.18,50.000000,,2013-02-13 17:02:00,
2013-02-13 12:32:00,44.0,44.0,-100.00,SW,226,7.0,22.0,99,0.00,,,0.18,53.000000,,2013-02-13 17:32:00,
2013-02-13 12:42:00,44.0,44.0,-100.00,SW,226,7.0,22.0,99,0.00,,,0.18,53.000000,,2013-02-13 17:42:00,
2013-02-13 12:52:00,44.0,44.0,-100.00,SW,226,7.0,22.0,99,0.00,,,0.18,53.000000,,2013-02-13 17:52:00,
2013-02-13 13:02:00,44.0,44.0,-100.00,SW,226,7.0,22.0,99,0.00,,,0.18,53.000000,,2013-02-13 18:02:00,
2013-02-13 13:32:00,43.0,42.0,-100.00,WSW,237,11.0,18.0,97,0.00,,,-99.99,73.000000,,2013-02-13 18:32:00,
2013-02-13 13:42:00,43.0,42.0,-100.00,WSW,237,11.0,18.0,97,0.00,,,-99.99,73.000000,,2013-02-13 18:42:00,
2013-02-13 13:52:00,43.0,42.0,-100.00,WSW,237,11.0,18.0,97,0.00,,,-99.99,73.000000,,2013-02-13 18:52:00,
2013-02-13 14:01:00,43.0,42.0,-100.00,WSW,237,11.0,18.0,97,0.00,,,-99.99,73.000000,,2013-02-13 19:01:00,
2013-02-13 14:32:00,42.0,40.0,-100.00,WSW,244,8.0,20.0,93,0.00,,,0.18,41.000000,,2013-02-13 19:32:00,
2013-02-13 14:42:00,42.0,40.0,-100.00,WSW,244,8.0,20.0,93,0.00,,,0.18,41.000000,,2013-02-13 19:42:00,
2013-02-13 14:52:00,42.0,40.0,-100.00,WSW,244,8.0,20.0,93,0.00,,,0.18,41.000000,,2013-02-13 19:52:00,
2013-02-13 15:02:00,42.0,40.0,-100.00,WSW,244,8.0,20.0,93,0.00,,,0.18,41.000000,,2013-02-13 20:02:00,
2013-02-13 15:32:00,42.0,41.0,-100.00,WSW,246,7.0,16.0,97,0.00,,,-99.99,76.000000,,2013-02-13 20:32:00,
2013-02-13 15:42:00,42.0,41.0,-100.00,WSW,246,7.0,16.0,97,0.00,,,-99.99,76.000000,,2013-02-13 20:42:00,
2013-02-13 15:52:00,42.0,41.0,-100.00,WSW,246,7.0,16.0,97,0.00,,,-99.99,76.000000,,2013-02-13 20:52:00,
2013-02-13 16:02:00,42.0,41.0,-100.00,WSW,246,7.0,16.0,97,0.00,,,-99.99,76.000000,,2013-02-13 21:02:00,
2013-02-13 16:32:00,41.0,37.0,-100.00,SW,218,8.0,19.0,84,0.01,,,0.19,40.000000,,2013-02-13 21:32:00,
2013-02-13 16:43:00,41.0,37.0,-100.00,SW,218,8.0,19.0,84,0.01,,,0.19,40.000000,,2013-02-13 21:43:00,
2013-02-13 16:52:00,41.0,37.0,-100.00,SW,218,8.0,19.0,84,0.01,,,0.19,40.000000,,2013-02-13 21:52:00,
2013-02-13 17:02:00,41.0,37.0,-100.00,SW,218,8.0,19.0,84,0.01,,,0.19,40.000000,,2013-02-13 22:02:00,
2013-02-13 17:32:00,37.0,34.0,-100.00,West,268,8.0,16.0,88,0.00,,,0.19,29.000000,,2013-02-13 22:32:00,
2013-02-13 17:42:00,37.0,34.0,-100.00,West,268,8.0,16.0,88,0.00,,,0.19,29.000000,,2013-02-13 22:42:00,
2013-02-13 17:52:00,37.0,34.0,-100.00,West,268,8.0,16.0,88,0.00,,,0.19,29.000000,,2013-02-13 22:52:00,
2013-02-13 18:01:00,37.0,34.0,-100.00,West,268,8.0,16.0,88,0.00,,,0.19,29.000000,,2013-02-13 23:01:00,
2013-02-13 18:32:00,36.0,33.0,-100.00,WNW,295,6.0,16.0,89,0.00,,,0.19,13.000000,,2013-02-13 23:32:00,
2013-02-13 18:42:00,36.0,33.0,-100.00,WNW,295,6.0,16.0,89,0.00,,,0.19,13.000000,,2013-02-13 23:42:00,
2013-02-13 18:53:00,36.0,33.0,-100.00,WNW,295,6.0,16.0,89,0.00,,,0.19,13.000000,,2013-02-13 23:53:00,
2013-02-13 19:02:00,36.0,33.0,-100.00,WNW,295,6.0,16.0,89,0.00,,,0.19,13.000000,,2013-02-14 00:02:00,
2013-02-13 19:32:00,35.0,33.0,-100.00,NW,321,5.0,11.0,92,0.00,,,0.15,1.000000,,2013-02-14 00:32:00,
2013-02-13 19:43:00,35.0,33.0,-100.00,NW,321,5.0,11.0,92,0.00,,,0.15,1.000000,,2013-02-14 00:43:00,
2013-02-13 19:52:00,35.0,33.0,-100.00,NW,321,5.0,11.0,92,0.00,,,0.15,1.000000,,2013-02-14 00:52:00,
2013-02-13 20:01:00,35.0,33.0,-100.00,NW,321,5.0,11.0,92,0.00,,,0.15,1.000000,,2013-02-14 01:01:00,
2013-02-13 21:32:00,35.0,34.0,-100.00,West,274,3.0,6.0,95,-99.99,,,0.12,0.000000,,2013-02-14 02:32:00,
2013-02-13 21:42:00,35.0,34.0,-100.00,West,274,3.0,6.0,95,-99.99,,,0.12,0.000000,,2013-02-14 02:42:00,
2013-02-13 21:52:00,35.0,34.0,-100.00,West,274,3.0,6.0,95,-99.99,,,0.12,0.000000,,2013-02-14 02:52:00,
2013-02-13 22:02:00,35.0,34.0,-100.00,West,274,3.0,6.0,95,-99.99,,,0.12,0.000000,,2013-02-14 03:02:00,
2013-02-13 22:32:00,35.0,33.0,-100.00,SSW,196,3.0,9.0,92,0.00,,,0.12,0.000000,,2013-02-14 03:32:00,
2013-02-13 22:42:00,35.0,33.0,-100.00,SSW,196,3.0,9.0,92,0.00,,,0.12,0.000000,,2013-02-14 03:42:00,
2013-02-13 22:52:00,35.0,33.0,-100.00,SSW,196,3.0,9.0,92,0.00,,,0.12,0.000000,,2013-02-14 03:52:00,
2013-02-13 23:01:00,35.0,33.0,-100.00,SSW,196,3.0,9.0,92,0.00,,,0.12,0.000000,,2013-02-14 04:01:00,
2013-02-13 23:32:00,35.0,32.0,-100.00,NNE,17,3.0,9.0,89,0.00,,,0.11,0.000000,,2013-02-14 04:32:00,
2013-02-13 23:42:00,35.0,32.0,-100.00,NNE,17,3.0,9.0,89,0.00,,,0.11,0.000000,,2013-02-14 04:42:00,
2013-02-13 23:52:00,35.0,32.0,-100.00,NNE,17,3.0,9.0,89,0.00,,,0.11,0.000000,,2013-02-14 04:52:00,